Regional Weather Roundup
Issued by NWS Nashville, TN

Home | Current Version | Previous Version | Text Only | Print | Product List | Glossary On
Versions: 1 2 3 4 5 6 7 8 9 10 11 12 13 14 15 16 17 18 19 20 21 22 23 24 25 26 27 28 29 30 31 32 33 34 35 36 37 38 39 40 41 42 43 44 45 46 47 48 49 50
000
ASUS44 KOHX 291715
RWROHX
MIDDLE TENNESSEE HOURLY WEATHER ROUNDUP
NATIONAL WEATHER SERVICE NASHVILLE TN
1200 PM CDT FRI AUG 29 2014

NOTE: "FAIR" INDICATES FEW OR NO CLOUDS BELOW 12,000 FEET WITH
NO SIGNIFICANT WEATHER AND/OR OBSTRUCTIONS TO VISIBILITY.

* THESE REPORTS ARE NOT UNDER NWS QUALITY CONTROL AND MAY NOT
  REPORT WEATHER SUCH AS PRECIPITATION AND FOG.


TNZ005>011-023>034-057-059-062>066-078-080-291800
...NORTHERN MIDDLE TENNESSEE...

CITY           SKY/WX    TMP DP  RH WIND       PRES   REMARKS
CLARKSVILLE    SUNNY     88  68  51 S6        30.01F HX  91
CROSSVILLE     PTSUNNY   82  59  45 VRB3      30.14F
GALLATIN         N/A     91  65  42 S8        30.05F HX  93
DICKSON        SUNNY     88  66  48 VRB5      30.04S HX  90
LEBANON        SUNNY     90  62  38 S8        30.04F HX  90
LIVINGSTON     SUNNY     85  62  45 SW6       30.10
NASHVILLE      MOSUNNY   92  57  30 SW8G18    30.04F HX  90
WEST NASHVILLE   N/A     90  61  37 S13       30.02F
SMYRNA         SUNNY     91  61  36 SW8       30.05S HX  91
SPARTA         SUNNY     90  66  45 CALM      30.08F HX  92
$$
TNZ056-058-060-061-075>077-079-093>097-291800
...SOUTHERN MIDDLE TENNESSEE...

CITY           SKY/WX    TMP DP  RH WIND       PRES   REMARKS
COLUMBIA         N/A     91  66  43 S9        30.03F HX  94
FAYETTEVILLE   SUNNY     84  64  51 VRB5      30.07F
LEWISBURG      SUNNY     91  64  40 SW5       30.05S HX  92
MCMINNVILLE    SUNNY     90  63  40 SW6       30.08S HX  90
MURFREESBORO   SUNNY     91  58  32 SW10      30.04F HX  90
SHELBYVILLE    SUNNY     90  64  43 SW12      30.07S HX  91
TULLAHOMA      SUNNY     86  63  45 S6        30.09S
WINCHESTER     SUNNY     90  61  37 S3        30.08F
$$


...KEY TO REMARKS...
VSB - VISIBILITY IN MILES
WCI - WIND CHILL INDEX
HX  - HEAT INDEX




USA.gov is the U.S. government's official web portal to all federal, state and local government web resources and services.